Regional Weather Roundup
Issued by NWS

Home | Current Version | Previous Version | Text Only | Print | Product List | Glossary On
Versions: 1 2 3 4 5 6 7 8 9 10 11 12 13 14 15 16 17 18 19 20 21 22 23 24 25 26 27 28 29 30 31 32 33 34 35 36 37 38 39 40 41 42 43 44 45 46 47 48 49 50
000
ASPQ40 PGUM 290212
RWRPQ
WEATHER ROUNDUP FOR THE MARIANAS AND MICRONESIA
NATIONAL WEATHER SERVICE TIYAN GU
1200 PM CHST THU JUN 29 2017

GUZ001>004-290300-
MARIANA ISLANDS-

CITY           SKY/WX    TMP DP  RH WIND       PRES   REMARKS
GUAM AIRPORT   LGT RAIN  79  77  94 SE9       29.91R FOG
ANDERSEN AFB   SHOWER    81  75  83 SE14G20   29.91S VSB 1
ROTA AIRPORT   CLOUDY    81  73  78 E14       29.89S
TINIAN AP      PTSUNNY   84  77  79 E15       29.86F HX  94
SAIPAN AP      MOSUNNY   86  77  74 E20       29.87F HX  97

$$

PMZ161-290300-
REPUBLIC OF PALAU-

CITY           SKY/WX    TMP DP  RH WIND       PRES   REMARKS
KOROR AP       NOT AVBL
KOROR WSO      CLOUDY    88  77  70 NW3       29.82F HX 100

$$

PMZ171>174-290300-
FEDERATED STATES OF MICRONESIA-

CITY           SKY/WX    TMP DP  RH WIND       PRES   REMARKS
YAP AIRPORT    CLOUDY    82  79  89 E14       29.81F HX  93
CHUUK AP       CLOUDY    88  75  66 E8        29.80F HX  97
POHNPEI AP     CLOUDY    86  77  74 E9        29.81F HX  97
POHNPEI WSO    CLOUDY    86  79  79 NE8       29.84F HX  99
KOSRAE AP      NOT AVBL

$$

PMZ181-290300-
REPUBLIC OF THE MARSHALL ISLANDS-

CITY           SKY/WX    TMP DP  RH WIND       PRES   REMARKS
KWAJALEIN AP   CLOUDY    84  75  74 N9        29.84F HX  92
MAJURO AP      NOT AVBL
MAJURO WSO     NOT AVBL

$$




USA.gov is the U.S. government's official web portal to all federal, state and local government web resources and services.